[[{"header":{"parameterUnit":"m.s-1","parameterCategory":1,"la1":30.2991,"la2":30.254,"lo1":-89.0895,"lo2":-89.0444,"dy":0.0017,"dx":0.0017,"nx":28,"ny":28,"refTime":"2024-02-27T03:00:00:Z","depth":0,"parameterNumber":2,"parameterNumberName":"U-component_of_WINDS"},"data":[0,0,0,0,0,0,0,0,0,0,0,0,0,0,0,0,0,0,0,0,0,0,0,0,0,0,0,0,0,0,0,0,0,0,0,0,0,0,0,0,0,0,0,0,0,0,0,0,0,0,0,0,0,0,0,0,0,0,1.8453,1.8453,0,1.8451,1.8451,1.8451,1.8426,1.8425,1.8425,1.8424,1.8422,1.8423,1.8423,0,0,0,0,0,0,0,0,0,0,0,0,0,1.8432,1.8433,1.8453,1.8453,1.8453,1.8451,1.8451,1.8451,1.8426,1.8425,1.8424,1.8424,1.8422,1.8423,1.8423,0,0,0,0,0,0,0,0,0,0,0,0,0,1.8437,1.8433,1.8453,1.844,1.8439,1.8451,1.8451,1.8451,1.8426,1.8425,1.8424,1.8423,1.8422,1.8423,1.8424,1.8448,0,0,1.8426,1.8426,0,0,0,0,0,0,0,0,1.8437,1.8438,1.8442,1.8441,1.8439,1.8438,1.8444,1.845,1.8426,1.8431,1.8424,1.8423,1.8428,1.8428,1.843,1.8448,1.8448,1.8426,1.8427,1.8427,1.8427,0,0,0,0,0,0,0,1.8437,1.8438,1.8452,1.8442,1.844,1.8434,1.8433,1.8445,1.8435,1.843,1.8429,1.8429,1.8427,1.843,1.843,1.8448,1.8426,1.8427,1.8427,1.8428,1.8486,1.8487,0,0,0,0,0,0,1.8438,1.8438,1.8452,1.8452,1.8436,1.8435,1.8435,1.8439,1.8435,1.8433,1.843,1.8428,1.8429,1.8429,1.843,1.8459,1.8427,1.8428,1.8428,1.8485,1.8486,1.8487,0,0,0,0,0,0,1.8438,1.844,1.8452,1.8444,1.8445,1.8436,1.8442,1.844,1.8442,1.8434,1.8432,1.8434,1.8428,1.8429,1.8444,1.8458,1.8428,1.8429,1.8484,1.8485,1.8487,1.8516,0,0,0,0,0,0,1.8437,1.844,1.8449,1.8445,1.8446,1.8466,1.8443,1.844,1.8444,1.8441,1.8438,1.8436,1.8427,1.8443,1.8445,1.8459,1.843,1.8482,1.8484,1.8486,1.8514,1.8519,1.8523,0,0,0,0,0,1.8437,1.8457,1.845,1.8452,1.8458,1.8467,1.8468,1.8457,1.8445,1.8454,1.8449,1.8436,1.8456,1.8445,1.8447,1.8461,1.8481,1.8484,1.8486,1.8512,1.8518,1.8522,0,0,0,0,0,0,1.8464,1.8457,1.8448,1.8468,1.8468,1.8463,1.8474,1.8464,1.8468,1.8465,1.8452,1.8451,1.8468,1.8466,1.8453,1.8485,1.8467,1.8469,1.8486,1.8491,1.8495,1.8495,1.843,0,0,0,0,0,1.8472,1.8481,1.8474,1.8492,1.8493,1.8484,1.8487,1.8479,1.8479,1.8479,1.8475,1.8475,1.8482,1.8486,1.8491,1.8513,1.8512,1.8524,1.8529,1.8532,1.8535,1.8546,1.8552,1.8495,1.8495,1.8495,0,0,1.8489,1.8486,1.8493,1.8497,1.8497,1.8506,1.8484,1.8494,1.8501,1.8481,1.8495,1.8492,1.8491,1.851,1.8518,1.8508,1.855,1.8535,1.8538,1.8539,1.8549,1.8555,1.856,1.8497,1.8496,1.8496,0,0,1.8525,1.8524,1.8539,1.8539,1.8538,1.8532,1.8536,1.8532,1.8529,1.8543,1.8528,1.8535,1.8546,1.8547,1.8548,1.8584,1.8572,1.8586,1.8609,1.862,1.8624,1.8628,1.8641,1.8646,1.8589,1.8589,1.8589,0,1.8546,1.856,1.8548,1.856,1.8562,1.8544,1.8559,1.8559,1.8561,1.8563,1.8552,1.8566,1.8564,1.8583,1.8591,1.8593,1.8597,1.8586,1.8625,1.8629,1.8632,1.8644,1.8649,1.859,1.859,1.859,1.859,0,1.8586,1.8595,1.8608,1.8609,1.8613,1.8626,1.8617,1.8622,1.8613,1.8608,1.8622,1.862,1.8624,1.8628,1.862,1.8645,1.8639,1.8627,1.8609,1.8639,1.8651,1.8655,1.8593,1.8592,1.8592,1.8591,0,0,1.8639,1.8634,1.8639,1.8639,1.8637,1.8644,1.8656,1.8661,1.8666,1.8667,1.8677,1.8687,1.8675,1.8677,1.8669,1.8678,1.8707,1.8665,1.8665,1.8673,1.8735,1.8745,1.875,1.8699,1.87,1.8701,1.8735,0,1.8674,1.8695,1.8685,1.8707,1.8715,1.8698,1.8709,1.8709,1.8704,1.871,1.8705,1.8713,1.8697,1.8698,1.8707,1.8702,1.872,1.8699,1.8708,1.8709,1.8709,1.8756,1.8766,1.8799,1.874,1.874,1.8741,0,1.8717,1.8721,1.8744,1.874,1.8743,1.8753,1.8756,1.8763,1.8762,1.8758,1.876,1.8749,1.8761,1.8742,1.8758,1.8744,1.8747,1.8746,1.8747,1.8747,1.8727,1.8758,1.8809,1.8814,1.8748,1.8747,1.8747,0,1.8754,1.8764,1.8779,1.878,1.8776,1.8783,1.8782,1.878,1.8784,1.8787,1.8789,1.8793,1.8795,1.8798,1.8789,1.8776,1.8806,1.8787,1.8803,1.8803,1.881,1.881,1.8863,1.8812,1.8812,1.8812,1.8812,0,1.8794,1.8808,1.8795,1.8805,1.8821,1.8809,1.8825,1.8822,1.882,1.8829,1.8814,1.8822,1.8809,1.8816,1.8808,1.8823,1.8824,1.8821,1.8819,1.8822,1.8823,1.8824,1.8822,1.8813,1.8813,1.8813,1.8812,0,1.8837,1.8829,1.8844,1.8839,1.8838,1.8851,1.8846,1.8854,1.8849,1.886,1.8861,1.8853,1.886,1.8851,1.8857,1.8852,1.8871,1.8866,1.8872,1.887,1.8887,1.8886,1.8943,1.895,1.8895,1.8895,1.8895,0,1.8863,1.8874,1.8871,1.8875,1.8875,1.8882,1.8886,1.8874,1.8878,1.8878,1.8887,1.8893,1.8897,1.8909,1.8903,1.8908,1.8902,1.8922,1.8903,1.8906,1.8903,1.8902,1.8903,1.8926,1.8927,1.8927,1.8928,0,1.891,1.8906,1.8911,1.8916,1.892,1.8923,1.8924,1.8929,1.8917,1.8922,1.893,1.8933,1.8939,1.8945,1.8949,1.8947,1.8935,1.8934,1.8938,1.8941,1.8945,1.8943,1.8883,1.8932,1.8932,1.8932,1.8931,1.8931,1.8946,1.8955,1.8954,1.896,1.896,1.8962,1.897,1.8965,1.8971,1.8976,1.8969,1.8978,1.8977,1.898,1.8979,1.8986,1.8978,1.8984,1.8985,1.8987,1.8989,1.8943,1.8987,1.8987,1.8987,1.8986,1.8986,0,1.8992,1.8991,1.8997,1.9,1.9005,1.8994,1.8995,1.9,1.9008,1.9009,1.9013,1.9021,1.9027,1.9022,1.9027,1.9033,1.9028,1.9035,1.9034,1.9034,1.8997,1.8993,1.9039,1.9039,1.9039,1.9039,1.9039,1.9039,1.9017,1.9032,1.9027,1.9042,1.904,1.9049,1.905,1.9052,1.9052,1.9062,1.9067,1.9064,1.9061,1.9066,1.9071,1.9069,1.9072,1.908,1.9077,1.9042,1.9037,1.9032,1.9028,1.9081,1.9081,1.9114,1.9114,1.9114]},{"header":{"parameterUnit":"m.s-1","parameterCategory":1,"la1":30.2991,"la2":30.254,"lo1":-89.0895,"lo2":-89.0444,"dy":0.0017,"dx":0.0017,"nx":28,"ny":28,"refTime":"2024-02-27T03:00:00:Z","depth":0,"parameterNumber":3,"parameterNumberName":"V-component_of_WINDS"},"data":[0,0,0,0,0,0,0,0,0,0,0,0,0,0,0,0,0,0,0,0,0,0,0,0,0,0,0,0,0,0,0,0,0,0,0,0,0,0,0,0,0,0,0,0,0,0,0,0,0,0,0,0,0,0,0,0,0,0,5.1596,5.1596,0,5.1626,5.1627,5.1627,5.1604,5.1603,5.1602,5.1601,5.1628,5.163,5.1632,0,0,0,0,0,0,0,0,0,0,0,0,0,5.1514,5.1516,5.1596,5.1596,5.1597,5.1626,5.1627,5.1627,5.1604,5.1603,5.1602,5.1601,5.1628,5.163,5.1632,0,0,0,0,0,0,0,0,0,0,0,0,0,5.1547,5.1516,5.1596,5.1589,5.1588,5.1626,5.1627,5.1627,5.1604,5.1603,5.1601,5.16,5.1627,5.163,5.1632,5.1677,0,0,5.164,5.1641,0,0,0,0,0,0,0,0,5.1546,5.155,5.1589,5.1589,5.1589,5.161,5.1608,5.1644,5.1605,5.1598,5.1601,5.1599,5.1623,5.1626,5.1635,5.1678,5.1679,5.164,5.1641,5.1642,5.1643,0,0,0,0,0,0,0,5.1543,5.1549,5.1608,5.159,5.159,5.1583,5.1586,5.1614,5.1618,5.1599,5.1597,5.1601,5.1623,5.1632,5.1635,5.168,5.164,5.1642,5.1644,5.1644,5.1763,5.1764,0,0,0,0,0,0,5.1542,5.1547,5.1607,5.1609,5.1563,5.1586,5.1589,5.1605,5.1618,5.1619,5.1602,5.16,5.1629,5.1632,5.1636,5.1691,5.1642,5.1645,5.1646,5.1761,5.1763,5.1765,0,0,0,0,0,0,5.1541,5.1548,5.1605,5.1578,5.1584,5.1589,5.1606,5.1606,5.1616,5.1621,5.1621,5.1612,5.1628,5.1633,5.1667,5.1691,5.1646,5.1648,5.1759,5.1762,5.1764,5.18,0,0,0,0,0,0,5.1538,5.1547,5.1565,5.1578,5.1586,5.1638,5.1608,5.1608,5.162,5.1618,5.163,5.1631,5.1627,5.1664,5.167,5.1694,5.165,5.1757,5.176,5.1763,5.1797,5.1803,5.1809,0,0,0,0,0,5.1535,5.1573,5.1566,5.1574,5.1609,5.1639,5.1643,5.164,5.1622,5.164,5.1644,5.163,5.1687,5.1668,5.1674,5.1699,5.1755,5.1759,5.1763,5.1794,5.1802,5.1809,0,0,0,0,0,0,5.1561,5.1575,5.1567,5.1611,5.1624,5.1635,5.1658,5.1648,5.1666,5.1662,5.1656,5.1659,5.1696,5.17,5.1678,5.1744,5.1718,5.1724,5.174,5.1748,5.1754,5.1752,5.1652,0,0,0,0,0,5.1572,5.1597,5.1607,5.1644,5.1651,5.1653,5.1666,5.1662,5.1675,5.1681,5.1687,5.1699,5.172,5.1734,5.1753,5.1796,5.1799,5.1817,5.1823,5.1828,5.1833,5.1857,5.1866,5.1777,5.1777,5.1777,0,0,5.1595,5.1605,5.1621,5.1649,5.166,5.1685,5.1658,5.1685,5.1704,5.1684,5.1719,5.1723,5.1736,5.1776,5.1794,5.1781,5.1858,5.1833,5.1837,5.1839,5.1862,5.1871,5.1878,5.1779,5.1779,5.1779,0,0,5.1649,5.1659,5.1692,5.1703,5.1719,5.172,5.1728,5.1741,5.1744,5.1778,5.1765,5.1785,5.1821,5.1831,5.1841,5.19,5.1888,5.1906,5.1939,5.1963,5.197,5.1976,5.1998,5.2006,5.191,5.1911,5.1911,0,5.1675,5.1714,5.171,5.1739,5.1752,5.1737,5.177,5.1779,5.18,5.1809,5.1795,5.184,5.1848,5.1891,5.1905,5.1913,5.1922,5.1905,5.1969,5.1975,5.1981,5.2002,5.201,5.1913,5.1912,5.1912,5.1912,0,5.1745,5.1772,5.1796,5.1819,5.1834,5.1865,5.1865,5.188,5.1875,5.1877,5.1912,5.1921,5.1942,5.1952,5.1946,5.1994,5.1986,5.197,5.1945,5.1992,5.2011,5.2019,5.1916,5.1915,5.1914,5.1914,0,0,5.1818,5.1839,5.1848,5.1858,5.1875,5.1895,5.1924,5.1946,5.1961,5.1975,5.2,5.203,5.2017,5.2028,5.2023,5.2044,5.2091,5.2026,5.2026,5.2039,5.2145,5.2158,5.2167,5.2083,5.2084,5.2085,5.2145,0,5.1874,5.1928,5.1926,5.1975,5.2,5.1986,5.2012,5.2024,5.2027,5.2047,5.2049,5.2072,5.2051,5.2058,5.2078,5.2081,5.2112,5.2076,5.2106,5.2107,5.2105,5.2177,5.2191,5.2247,5.2152,5.2153,5.2154,0,5.1948,5.1967,5.202,5.2034,5.2044,5.2068,5.2088,5.2108,5.2121,5.2122,5.2135,5.2126,5.2155,5.2128,5.2168,5.2144,5.2155,5.2158,5.216,5.2164,5.2135,5.2185,5.2264,5.2273,5.2166,5.2165,5.2164,0,5.1998,5.2036,5.2074,5.2083,5.2099,5.2116,5.2123,5.2135,5.2149,5.2166,5.2175,5.2195,5.2206,5.2221,5.2218,5.2198,5.2259,5.2231,5.226,5.226,5.2275,5.2274,5.2359,5.228,5.2279,5.2279,5.2279,0,5.2063,5.2096,5.2097,5.212,5.2156,5.2152,5.2188,5.2193,5.2204,5.2227,5.2214,5.2235,5.2229,5.225,5.2248,5.2282,5.2286,5.2287,5.2286,5.229,5.229,5.2298,5.2295,5.2281,5.2281,5.2281,5.228,0,5.2125,5.2127,5.2167,5.2179,5.2183,5.221,5.222,5.2241,5.2243,5.2272,5.2278,5.2281,5.2305,5.2303,5.2329,5.2327,5.237,5.2363,5.2366,5.2366,5.2395,5.2393,5.249,5.2502,5.2413,5.2414,5.2415,0,5.2167,5.2193,5.2209,5.2224,5.2233,5.2258,5.2272,5.2268,5.2284,5.2301,5.232,5.2343,5.2362,5.2401,5.2404,5.2424,5.2419,5.2452,5.2422,5.2425,5.2422,5.2421,5.2424,5.2458,5.2459,5.246,5.246,0,5.2242,5.2242,5.2265,5.2287,5.2306,5.2323,5.2338,5.2351,5.2348,5.2366,5.2392,5.2406,5.2434,5.2457,5.2476,5.2482,5.2471,5.2469,5.2478,5.2482,5.2483,5.2484,5.2384,5.2468,5.2467,5.2466,5.2466,5.2466,5.2297,5.232,5.2335,5.236,5.2372,5.2387,5.2408,5.2413,5.2435,5.2458,5.2454,5.2482,5.2494,5.252,5.2528,5.2549,5.2537,5.2549,5.2552,5.2555,5.256,5.2478,5.2552,5.2552,5.2552,5.2552,5.2552,0,5.2373,5.2383,5.2406,5.2429,5.2449,5.2437,5.2454,5.2471,5.2497,5.251,5.2529,5.2558,5.2581,5.2586,5.2607,5.2623,5.2619,5.2629,5.2629,5.2631,5.2568,5.256,5.2633,5.2633,5.2633,5.2633,5.2633,5.2633,5.2416,5.2454,5.2455,5.2499,5.2507,5.2537,5.2547,5.2561,5.2571,5.2605,5.2625,5.2628,5.2638,5.266,5.2679,5.268,5.2689,5.2702,5.2701,5.2643,5.2635,5.2627,5.262,5.2704,5.2704,5.2762,5.2763,5.2763]}]]